Binghamton, NY
on Monday, December 11, 2017

Monday
       
Previous Day Next Day
Daily Summary
 ActualAverageRecord
Temperature
Mean Temperature °F °C 29°F -2°C  
Max Temperature 29°F -2°C 35°F 2°C 60°F 15°C (1979)
Min Temperature 23°F -5°C 23°F -5°C -6°F -21°C (1988)
Degree Days
Heating Degree Days 39 36  
Month to date heating degree days 366 380  
Since 1 July heating degree days 1764 1955  
Cooling Degree Days 0 0  
Month to date cooling degree days 0 0  
Year to date cooling degree days 349 381  
Moisture
Dew Point 19°F -7°C   
Average Humidity 76    
Maximum Humidity 88    
Minimum Humidity 63    
Precipitation
Precipitation T in / T cm 0.10 in / 2.54 cm 1.38 in / 3.51 cm (1952)
Month to date precipitation 0.32 1.13  
Year to date precipitation 47.21 37.60  
Snow
Snow T in / T cm 0.60 in / 1.52 cm 4.10 in / 10.41 cm (1992)
Month to date snowfall T 5.6  
Since 1 July snowfall 1.8 12.4  
Snow Depth T in / T cm   
Wind
Wind Speed 8 mph / 13 km/h   
Max Wind Speed 15 mph / 24 km/h   
Max Gust Speed 22 mph / 35 km/h   
Visibility 9 miles / 14 kilometers   
Events Snow   

Key: T is trace of precipitation, MM is missing value
Source: NWS Daily Summary
Time(EST)TemperatureDew PointHumidity Pressure Visibility Wind DirectionWind SpeedGust SpeedPrecipitationEvents Conditions
12:53 AM 26.1°F -3.3°C 16.0°F -8.9°C 66% 29.91 in / 1012.6 hPa 10.0 miles / 16.1 kilometers WSW 8.1 mph / 13.0 km/h - N/A   Overcast
1:53 AM 26.1°F -3.3°C 16.0°F -8.9°C 66% 29.91 in / 1012.7 hPa 10.0 miles / 16.1 kilometers WSW 8.1 mph / 13.0 km/h - N/A   Overcast
2:53 AM 25.0°F -3.9°C 17.1°F -8.3°C 72% 29.91 in / 1012.9 hPa 10.0 miles / 16.1 kilometers WSW 9.2 mph / 14.8 km/h - N/A   Overcast
3:53 AM 25.0°F -3.9°C 17.1°F -8.3°C 72% 29.92 in / 1013.2 hPa 10.0 miles / 16.1 kilometers West 10.4 mph / 16.7 km/h - N/A   Overcast
4:03 AM 25.0°F -3.9°C 17.1°F -8.3°C 72% 29.86 in / 1011.1 hPa 10.0 miles / 16.1 kilometers West 9.2 mph / 14.8 km/h - N/A   Overcast
4:53 AM 25.0°F -3.9°C 18.0°F -7.8°C 75% 29.93 in / 1013.4 hPa 6.0 miles / 9.7 kilometers West 10.4 mph / 16.7 km/h - 0.00 in / 0.0 cm Snow Light Snow
5:05 AM 25.0°F -3.9°C 18.0°F -7.8°C 75% 29.87 in / 1011.4 hPa 7.0 miles / 11.3 kilometers West 10.4 mph / 16.7 km/h - 0.00 in / 0.0 cm Snow Light Snow
5:15 AM 25.0°F -3.9°C 18.0°F -7.8°C 75% 29.87 in / 1011.4 hPa 2.5 miles / 4.0 kilometers West 11.5 mph / 18.5 km/h - 0.00 in / 0.0 cm Snow Light Snow
5:38 AM 23.0°F -5.0°C 19.0°F -7.2°C 85% 29.88 in / 1011.7 hPa 5.0 miles / 8.0 kilometers West 6.9 mph / 11.1 km/h - 0.00 in / 0.0 cm Snow Light Snow
5:53 AM 23.0°F -5.0°C 19.0°F -7.2°C 85% 29.94 in / 1013.9 hPa 9.0 miles / 14.5 kilometers WSW 8.1 mph / 13.0 km/h - 0.00 in / 0.0 cm   Overcast
6:53 AM 23.0°F -5.0°C 19.0°F -7.2°C 85% 29.96 in / 1014.5 hPa 10.0 miles / 16.1 kilometers West 9.2 mph / 14.8 km/h - 0.00 in / 0.0 cm   Overcast
7:53 AM 24.1°F -4.4°C 19.9°F -6.7°C 84% 29.97 in / 1014.9 hPa 10.0 miles / 16.1 kilometers WSW 8.1 mph / 13.0 km/h - 0.00 in / 0.0 cm   Overcast
8:53 AM 25.0°F -3.9°C 21.0°F -6.1°C 85% 29.99 in / 1015.4 hPa 8.0 miles / 12.9 kilometers West 9.2 mph / 14.8 km/h - 0.00 in / 0.0 cm   Overcast
9:15 AM 25.0°F -3.9°C 21.0°F -6.1°C 85% 29.93 in / 1013.4 hPa 5.0 miles / 8.0 kilometers West 10.4 mph / 16.7 km/h - 0.00 in / 0.0 cm Snow Light Snow
9:53 AM 26.1°F -3.3°C 21.0°F -6.1°C 81% 30.00 in / 1015.9 hPa 5.0 miles / 8.0 kilometers West 10.4 mph / 16.7 km/h - 0.00 in / 0.0 cm Snow Light Snow
10:27 AM 27.0°F -2.8°C 21.9°F -5.6°C 81% 29.94 in / 1013.8 hPa 10.0 miles / 16.1 kilometers West 9.2 mph / 14.8 km/h - 0.00 in / 0.0 cm   Overcast
10:53 AM 27.0°F -2.8°C 19.9°F -6.7°C 75% 30.00 in / 1015.9 hPa 10.0 miles / 16.1 kilometers WNW 11.5 mph / 18.5 km/h - 0.00 in / 0.0 cm   Overcast
11:53 AM 28.0°F -2.2°C 18.0°F -7.8°C 66% 29.98 in / 1015.1 hPa 10.0 miles / 16.1 kilometers WNW 10.4 mph / 16.7 km/h 19.6 mph / 31.5 km/h N/A   Overcast
12:00 PM 28.0°F -2.2°C 17.1°F -8.3°C 63% 29.92 in / 1013.1 hPa 10.0 miles / 16.1 kilometers WNW 9.2 mph / 14.8 km/h - N/A   Overcast
12:53 PM 28.0°F -2.2°C 17.1°F -8.3°C 63% 29.96 in / 1014.3 hPa 10.0 miles / 16.1 kilometers West 6.9 mph / 11.1 km/h - N/A   Overcast
1:53 PM 28.0°F -2.2°C 17.1°F -8.3°C 63% 29.96 in / 1014.6 hPa 10.0 miles / 16.1 kilometers WSW 8.1 mph / 13.0 km/h - N/A   Overcast
2:53 PM 28.0°F -2.2°C 18.0°F -7.8°C 66% 29.97 in / 1014.8 hPa 10.0 miles / 16.1 kilometers SW 6.9 mph / 11.1 km/h - N/A   Overcast
3:53 PM 27.0°F -2.8°C 19.0°F -7.2°C 72% 29.97 in / 1014.8 hPa 10.0 miles / 16.1 kilometers South 5.8 mph / 9.3 km/h - N/A   Overcast
4:53 PM 27.0°F -2.8°C 19.0°F -7.2°C 72% 29.95 in / 1014.0 hPa 10.0 miles / 16.1 kilometers Calm Calm - N/A   Overcast
5:53 PM 27.0°F -2.8°C 19.9°F -6.7°C 75% 29.95 in / 1014.1 hPa 10.0 miles / 16.1 kilometers South 3.5 mph / 5.6 km/h - N/A   Overcast
6:53 PM 26.1°F -3.3°C 19.9°F -6.7°C 78% 29.92 in / 1013.1 hPa 10.0 miles / 16.1 kilometers SE 4.6 mph / 7.4 km/h - N/A   Overcast
7:53 PM 27.0°F -2.8°C 19.9°F -6.7°C 75% 29.90 in / 1012.5 hPa 10.0 miles / 16.1 kilometers SSE 5.8 mph / 9.3 km/h - N/A   Overcast
8:53 PM 27.0°F -2.8°C 19.0°F -7.2°C 72% 29.89 in / 1012.0 hPa 10.0 miles / 16.1 kilometers SSE 8.1 mph / 13.0 km/h - 0.00 in / 0.0 cm   Overcast
9:53 PM 27.0°F -2.8°C 18.0°F -7.8°C 69% 29.86 in / 1010.9 hPa 10.0 miles / 16.1 kilometers SSE 10.4 mph / 16.7 km/h - N/A   Overcast
10:53 PM 27.0°F -2.8°C 19.0°F -7.2°C 72% 29.82 in / 1009.8 hPa 6.0 miles / 9.7 kilometers SSE 9.2 mph / 14.8 km/h - 0.00 in / 0.0 cm Snow Light Snow
11:53 PM 28.0°F -2.2°C 19.0°F -7.2°C 69% 29.78 in / 1008.4 hPa 10.0 miles / 16.1 kilometers SSE 12.7 mph / 20.4 km/h - 0.00 in / 0.0 cm   Overcast